Weather History for Beckley, WV

Change the Weather History Date:

Monday, May 6, 2013

  Actual Average Record
Temperature  
Mean Temperature 53 °F 58 °F  
Max Temperature 56 °F 68 °F 88 °F (1950)
Min Temperature 50 °F 47 °F 29 °F (1957)
Degree Days  
Heating Degree Days 12 8  
Month to date heating degree days 50 51  
Since 1 July heating degree days 5139 5160  
Cooling Degree Days 0 0  
Month to date cooling degree days 0 0  
Year to date cooling degree days 16 10  
Growing Degree Days 2 (Base 50)    
Moisture  
Dew Point 49 °F    
Average Humidity 85    
Maximum Humidity 93    
Minimum Humidity 77    
Precipitation  
Precipitation 0.77 in 0.14 in 1.39 in (1984)
Month to date precipitation 0.77 0.84  
Year to date precipitation 11.84 13.34  
Snow  
Snow 0.00 in - - ()
Month to date snowfall 0.0  
Since 1 September snowfall 72.0  
Snow Depth 0.00 in    
Sea Level Pressure  
Sea Level Pressure 29.92 in    
Wind  
Wind Speed 12 mph (East)    
Max Wind Speed 30 mph    
Max Gust Speed 43 mph    
Visibility 8 miles    
Events Rain    
T = Trace of Precipitation, MM = Missing Value Source: NWS Daily Summary

Daily Weather History Graph

Daily Weather History Graph

Search for Another Location

Airport:

Trip Planner

Search our weather history database for the weather conditions in past years. The results will help you decide how hot, cold, wet, or windy it might be!

Date:

Astronomy

May. 06, 2013 Rise Set
Actual Time 6:22 AM EDT 8:19 PM EDT
Civil Twilight 5:54 AM EDT 8:48 PM EDT
Nautical Twilight 5:19 AM EDT 9:23 PM EDT
Astronomical Twilight 4:42 AM EDT 10:01 PM EDT
Moon 4:20 AM EDT (5/6) 5:21 PM EDT (5/6)
Length of Visible Light 14h 54m
Length of Day
13h 56m
Waning Crescent, 11% of the Moon is Illuminated
May 6
Waning Crescent
May 9
New
May 18
First Quarter
May 25
Full
May 31
Last Quarter

Hourly Weather History & Observations

Time (EDT) Temp. Dew Point Humidity Pressure Visibility Wind Dir Wind Speed Gust Speed Precip Events Conditions
12:51 AM 52.0 °F 45.0 °F 77% 29.92 in 10.0 mi ESE 15.0 mph 27.6 mph N/A   Overcast
1:51 AM 51.1 °F 46.0 °F 83% 29.91 in 10.0 mi SE 20.7 mph 31.1 mph N/A   Mostly Cloudy
2:51 AM 52.0 °F 45.0 °F 77% 29.88 in 10.0 mi ESE 25.3 mph 36.8 mph N/A   Mostly Cloudy
3:22 AM 51.8 °F 44.6 °F 76% 29.91 in 10.0 mi SE 25.3 mph 39.1 mph 0.00 in Rain Light Rain
3:51 AM 51.1 °F 45.0 °F 80% 29.88 in 10.0 mi ESE 25.3 mph 35.7 mph 0.00 in   Scattered Clouds
4:14 AM 51.8 °F 46.4 °F 82% 29.92 in 10.0 mi ESE 18.4 mph 29.9 mph N/A   Mostly Cloudy
4:51 AM 52.0 °F 46.0 °F 80% 29.90 in 10.0 mi ESE 17.3 mph 25.3 mph N/A   Overcast
5:51 AM 52.0 °F 46.0 °F 80% 29.90 in 10.0 mi ESE 17.3 mph 28.8 mph 0.00 in   Overcast
6:38 AM 51.8 °F 46.4 °F 82% 29.93 in 2.5 mi ESE 9.2 mph - 0.01 in Rain Light Rain
6:49 AM 51.8 °F 46.4 °F 82% 29.93 in 3.0 mi East 13.8 mph 23.0 mph 0.02 in Rain Light Rain
6:51 AM 51.1 °F 46.9 °F 86% 29.91 in 4.0 mi East 13.8 mph 23.0 mph 0.02 in Rain Light Rain
7:51 AM 52.0 °F 48.0 °F 86% 29.91 in 10.0 mi East 15.0 mph 26.5 mph 0.00 in   Overcast
8:51 AM 53.1 °F 48.0 °F 83% 29.91 in 10.0 mi ESE 16.1 mph 27.6 mph N/A   Overcast
9:51 AM 54.0 °F 48.0 °F 80% 29.93 in 10.0 mi East 11.5 mph 29.9 mph 0.00 in Rain Light Rain
10:24 AM 53.6 °F 48.2 °F 82% 29.95 in 3.0 mi ESE 17.3 mph 27.6 mph 0.01 in Rain Light Rain
10:51 AM 55.0 °F 51.1 °F 86% 29.92 in 6.0 mi East 16.1 mph 25.3 mph 0.02 in Rain Light Rain
11:33 AM 55.4 °F 51.8 °F 88% 29.95 in 8.0 mi ESE 12.7 mph 21.9 mph 0.04 in Rain Light Rain
11:51 AM 54.0 °F 50.0 °F 86% 29.94 in 10.0 mi ESE 16.1 mph 20.7 mph 0.05 in   Overcast
12:51 PM 54.0 °F 48.9 °F 83% 29.94 in 8.0 mi ESE 11.5 mph 25.3 mph 0.01 in Rain Light Rain
1:04 PM 53.6 °F 48.2 °F 82% 29.96 in 1.8 mi ESE 10.4 mph 17.3 mph 0.00 in Rain Rain
1:17 PM 55.4 °F 51.8 °F 88% 29.93 in 3.0 mi East 10.4 mph 18.4 mph 0.05 in Rain Rain
1:51 PM 55.0 °F 50.0 °F 83% 29.92 in 9.0 mi East 9.2 mph 20.7 mph 0.06 in Rain Light Rain
2:51 PM 55.0 °F 50.0 °F 83% 29.92 in 5.0 mi ESE 11.5 mph - 0.03 in Rain Light Rain
3:27 PM 53.6 °F 50.0 °F 88% 29.94 in 4.0 mi ESE 12.7 mph 19.6 mph 0.04 in Rain Rain
3:51 PM 54.0 °F 50.0 °F 86% 29.92 in 3.0 mi East 9.2 mph 18.4 mph 0.09 in Rain Rain
4:11 PM 53.6 °F 50.0 °F 88% 29.94 in 2.5 mi East 10.4 mph - 0.09 in Rain Heavy Rain
4:51 PM 53.1 °F 50.0 °F 89% 29.90 in 3.0 mi NE 4.6 mph - 0.35 in Rain Rain
5:35 PM 53.6 °F 51.8 °F 94% 29.91 in 4.0 mi ENE 8.1 mph - 0.06 in Rain Rain
5:51 PM 54.0 °F 51.1 °F 90% 29.89 in 6.0 mi ENE 8.1 mph - 0.07 in Rain Light Rain
6:00 PM 53.6 °F 51.8 °F 94% 29.91 in 2.5 mi NE 8.1 mph - 0.03 in Rain Heavy Rain
6:08 PM 53.6 °F 50.0 °F 88% 29.90 in 4.0 mi NE 5.8 mph - 0.06 in Rain Rain
6:51 PM 54.0 °F 50.0 °F 86% 29.89 in 10.0 mi East 11.5 mph 20.7 mph 0.06 in Rain Light Rain
7:34 PM 53.6 °F 50.0 °F 88% 29.92 in 10.0 mi East 6.9 mph - 0.01 in   Overcast
7:51 PM 54.0 °F 50.0 °F 86% 29.90 in 10.0 mi East 9.2 mph - 0.01 in   Overcast
8:11 PM 53.6 °F 48.2 °F 82% 29.92 in 10.0 mi East 10.4 mph - N/A   Overcast
8:51 PM 53.1 °F 48.9 °F 86% 29.92 in 10.0 mi ESE 4.6 mph - N/A   Overcast
9:51 PM 52.0 °F 48.9 °F 89% 29.94 in 10.0 mi WSW 5.8 mph - N/A   Mostly Cloudy
10:44 PM 50.0 °F 48.2 °F 94% 29.95 in 10.0 mi Calm Calm - N/A   Mostly Cloudy
10:51 PM 50.0 °F 48.0 °F 93% 29.94 in 10.0 mi Calm Calm - N/A   Mostly Cloudy
11:25 PM 51.8 °F 48.2 °F 88% 29.96 in 10.0 mi Calm Calm - N/A   Overcast
11:51 PM 52.0 °F 48.9 °F 89% 29.94 in 10.0 mi NNE 4.6 mph - 0.00 in Rain Light Rain